240P/NEAT (2025)

Japanese version
Home page
Updated on July 14, 2025

---------------------------------------------------------------------

* Profile

* Pictures

* Orbital Elements

Epoch 2024 Mar. 31.0 TT = JDT 2460400.5
T 2025 Dec. 19.89344 TT                                 Rudenko
q   2.1230116            (2000.0)            P               Q
n   0.12985931     Peri.  352.00739     +0.38079560     -0.84043017
a   3.8620746      Node    74.91578     +0.86891436     +0.18264449
e   0.4502924      Incl.   23.53689     +0.31620017     +0.51021379
P   7.59
>From 2826 observations 2002 Oct. 5-2024 June 13, mean residual 1".0.
     Nongravitational parameters A1 = +1.15, A2 = +0.0670.

* Finding Charts

* Magnitudes Graph

        m1 = 5.8 + 5 log d + 20.0 log r  [    ,-180]  (             - 2025 June 22)
        m1 = 8.5 + 5 log d + 10.0 log r  [-180,   0]  (2025 June 22 - 2025 Dec. 19)
        m1 = 4.5 + 5 log d + 22.0 log r  [   0,    ]  (2025 Dec. 19 -             )

---------------------------------------------------------------------

The orbital elements are published on M.P.E.C. 2024-M41.
The charts are made with StellaNavigator Ver.11 (AstroArts).
The magnitudes graphs are made with Comet for Windows.

---------------------------------------------------------------------

Copyright(C) Seiichi Yoshida (comet@aerith.net). All rights reserved.